カタログに戻る

KUIPER-00221

運用中通信LEO
NORAD 67147·PAYLOAD·🇺🇸 United States

打ち上げ Dec 15, 2025 から Cape Canaveral Space Force Station

Loading…

次のパス (今後24時間)

TLE

最新Source: CelesTrak SupGP

元期: Sep 14, 2026, 18:12 UTC

1 67147C 25301Q   26257.75879630  .00004086  00000+0  53485-3 0  2575
2 67147  51.9015 324.5726 0000616  70.2083 282.7432 14.79931131    18

AllMySatでKUIPER-00221をリアルタイム追跡

Download on the App Store